Juliana Airport, Sint Maarten

4:52 PM AST on October 18, 2017 (GMT -0400)
Princess Juliana International

Weather History for TNCM - February, 2013

Change the Weather History Date:

Tuesday, February 5, 2013

  Actual Average Record
Temperature  
Mean Temperature 75 °F -  
Max Temperature 81 °F 81 °F 86 °F (1998)
Min Temperature 69 °F 72 °F 69 °F (2013)
Cooling Degree Days 10    
Growing Degree Days 25 (Base 50)    
Moisture  
Dew Point 65 °F    
Average Humidity 67    
Maximum Humidity 88    
Minimum Humidity 51    
Precipitation  
Precipitation 0.04 in 0.06 in - ()
Sea Level Pressure  
Sea Level Pressure 30.01 in    
Wind  
Wind Speed 8 mph ()    
Max Wind Speed 16 mph    
Max Gust Speed 23 mph    
Visibility 7.6 miles    
Events Rain    
Averages and records for this station are not official NWS values.
T = Trace of Precipitation, MM = Missing Value Source: Averaged Metar Reports

Daily Weather History Graph

Daily Weather History Graph

Search for Another Location

Airport or City:

Trip Planner

Search our weather history database for the weather conditions in past years. The results will help you decide how hot, cold, wet, or windy it might be!

Date:

Astronomy

Feb. 05, 2013 Rise Set
Actual Time 6:44 AM AST 6:09 PM AST
Civil Twilight 6:21 AM AST 6:31 PM AST
Nautical Twilight 5:55 AM AST 6:57 PM AST
Astronomical Twilight 5:29 AM AST 7:23 PM AST
Moon 2:07 AM AST (2/5) 1:37 PM AST (2/5)
Length of Visible Light 12h 10m
Length of Day
11h 25m
Waning Crescent, 27% of the Moon is Illuminated
Feb 5
Waning Crescent
Feb 10
New
Feb 17
First Quarter
Feb 25
Full
Mar 4
Last Quarter

Hourly Weather History & Observations

Time (AST) Temp. Heat Index Dew Point Humidity Pressure Visibility Wind Dir Wind Speed Gust Speed Precip Events Conditions
12:00 AM 75.2 °F - 60.8 °F 61% 30.01 in 6.2 mi East 8.1 mph - N/A   Partly Cloudy
1:00 AM 75.2 °F - 62.6 °F 65% 29.98 in 6.2 mi ENE 8.1 mph - N/A   Scattered Clouds
2:00 AM 76 °F - 64 °F 57% 29.99 in 37 mi ESE 8.1 mph - -   Mostly Cloudy
2:00 AM 75.2 °F - 64.4 °F 69% 29.98 in 6.2 mi ESE 9.2 mph - N/A   Mostly Cloudy
3:00 AM 73.4 °F - 64.4 °F 73% 29.98 in 6.2 mi ESE 11.5 mph - N/A   Mostly Cloudy
4:00 AM 73.4 °F - 66.2 °F 78% 29.98 in 6.2 mi East 4.6 mph - N/A   Mostly Cloudy
5:00 AM 74 °F - 65 °F 66% 29.98 in 19 mi East 5.8 mph - -   Partly Cloudy
5:00 AM 73.4 °F - 64.4 °F 73% 29.98 in 6.2 mi East 8.1 mph - N/A   Mostly Cloudy
6:00 AM 69.8 °F - 66.2 °F 88% 30.01 in 6.2 mi East 9.2 mph 23.0 mph N/A Rain Light Rain
7:00 AM 73.4 °F - 66.2 °F 78% 30.01 in 6.2 mi ESE 8.1 mph - N/A   Scattered Clouds
8:00 AM 76 °F - 67 °F 67% 30.04 in 40 mi East 9.2 mph - -   Partly Cloudy
8:00 AM 75.2 °F - 68.0 °F 78% 30.04 in 6.2 mi East 9.2 mph - N/A   Scattered Clouds
9:00 AM 77.0 °F - 68.0 °F 74% 30.04 in 6.2 mi East 9.2 mph - N/A   Partly Cloudy
10:00 AM 80.6 °F 82.7 °F 66.2 °F 61% 30.06 in 6.2 mi East 15.0 mph - N/A   Scattered Clouds
11:00 AM 78 °F - 67 °F 61% 30.06 in 6 mi ESE 12.7 mph - - Rain Light Rain Showers
11:00 AM 78.8 °F - 68.0 °F 69% 30.04 in 6.2 mi ESE 12.7 mph - N/A   Mostly Cloudy
12:00 PM 78.8 °F - 66.2 °F 65% 30.04 in 6.2 mi ESE 11.5 mph - N/A   Mostly Cloudy
1:00 PM 73.4 °F - 68.0 °F 83% 30.01 in 6.2 mi ESE 11.5 mph - N/A   Scattered Clouds
2:00 PM 78 °F - 68 °F 63% 30.01 in 25 mi ENE 3.5 mph - - Rain Light Rain Showers
2:00 PM 77.0 °F - 68.0 °F 74% 30.01 in 6.2 mi Variable 4.6 mph - N/A   Mostly Cloudy
3:00 PM 78.8 °F - 66.2 °F 65% 29.98 in 6.2 mi East 8.1 mph - N/A   Mostly Cloudy
4:00 PM 78.8 °F - 64.4 °F 61% 29.98 in 6.2 mi East 10.4 mph - N/A   Scattered Clouds
5:00 PM 79 °F - 64 °F 51% 29.99 in 25 mi ESE 10.4 mph - -   Partly Cloudy
5:00 PM 78.8 °F - 64.4 °F 61% 29.98 in 6.2 mi East 11.5 mph - N/A   Scattered Clouds
6:00 PM 78.8 °F - 62.6 °F 57% 29.98 in 6.2 mi East 16.1 mph - N/A   Mostly Cloudy
7:00 PM 78.8 °F - 62.6 °F 57% 30.01 in 6.2 mi East 11.5 mph - N/A   Mostly Cloudy
8:00 PM 78 °F - 65 °F 56% 30.02 in 19 mi ESE 11.5 mph - -   Partly Cloudy
8:00 PM 77.0 °F - 66.2 °F 69% 30.01 in 6.2 mi East 11.5 mph - N/A   Mostly Cloudy
9:00 PM 77.0 °F - 64.4 °F 65% 30.01 in 6.2 mi East 11.5 mph - N/A   Mostly Cloudy
10:00 PM 77.0 °F - 64.4 °F 65% 30.04 in 6.2 mi East 10.4 mph - N/A   Mostly Cloudy
11:00 PM 77 °F - 65 °F 57% 30.04 in 19 mi East 11.5 mph - -   Mostly Cloudy
11:00 PM 77.0 °F - 64.4 °F 65% 30.04 in 6.2 mi East 11.5 mph - N/A   Scattered Clouds